PBO Station Position Time Series. Reference Frame : NAM14
Format Version,1.1.1
4-character ID,WHIT
Station name,WHITEHORSE
Begin Date, 1996-06-07
End Date, 2023-06-26
Release Date, 2023-06-27
Reference position, 60.7505111679 North Latitude, -135.2221132171 East Longitude, 1427.39850 meters elevation,
Date, North (mm), East (mm), Vertical (mm), North Std. Deviation (mm), East Std. Deviation (mm),              Vertical Std. Deviation (mm), Quality,
1996-06-07,0.00, 0.00, 0.00, 4.09, 2.69, 12.67, repro,
1996-06-08,-2.39, -2.59, -3.21, 3.84, 2.64, 12.54, repro,
1996-06-09,-1.41, -1.35, -3.54, 4.36, 3.12, 13.79, repro,
1996-06-10,-1.84, -3.06, -11.50, 2.86, 1.99, 8.59, repro,
1996-06-11,-0.39, -1.70, -4.52, 3.73, 2.64, 12.30, repro,
1996-06-12,-3.61, -0.64, -6.01, 3.80, 2.62, 12.56, repro,
1996-06-13,-1.94, -1.23, 0.93, 3.77, 2.62, 12.42, repro,
1996-06-14,0.02, -2.15, -14.59, 2.83, 1.93, 8.54, repro,
1996-06-15,-0.49, -4.71, -16.25, 2.80, 1.92, 8.45, repro,
1996-06-16,-1.67, -4.01, -17.12, 2.80, 1.92, 8.43, repro,
1996-06-17,-1.57, -3.38, -17.50, 2.98, 2.09, 8.82, repro,
1996-06-18,-2.09, -1.51, -20.05, 3.16, 3.34, 9.66, repro,
1996-06-19,-1.96, -1.25, -11.64, 3.24, 4.63, 9.49, repro,
1996-06-20,-2.32, -5.32, -16.41, 3.43, 4.57, 9.80, repro,
1996-06-21,-0.20, -4.86, -11.82, 3.07, 2.66, 9.05, repro,
1996-06-22,-4.25, -2.86, -10.12, 4.70, 3.03, 15.20, repro,
1996-06-27,0.22, -4.51, 15.71, 4.49, 3.29, 14.57, repro,
1996-06-28,-3.78, -2.50, 2.13, 2.79, 1.93, 8.58, repro,
1996-06-29,-3.01, -3.48, -7.28, 2.93, 1.96, 8.70, repro,
1996-06-30,-2.34, -3.00, -4.40, 3.03, 2.07, 9.37, repro,
1996-07-01,-2.40, -2.26, -6.53, 2.95, 1.94, 8.69, repro,
1996-07-02,-1.42, -4.70, -9.43, 2.81, 1.92, 8.70, repro,
1996-07-03,-0.32, -2.19, -6.80, 3.09, 2.12, 9.30, repro,
1996-07-04,-3.86, -2.05, -0.91, 3.05, 2.05, 9.14, repro,
1996-07-05,-2.43, -2.18, -6.49, 3.57, 4.64, 9.93, repro,
1996-07-06,-1.59, -0.01, -11.36, 3.36, 4.46, 9.94, repro,
1996-07-07,0.03, -2.28, -8.75, 3.11, 2.83, 9.24, repro,
1996-07-08,-4.17, -2.53, -7.30, 2.93, 2.02, 8.84, repro,
1996-07-09,-4.72, -2.06, -5.93, 3.09, 2.13, 9.26, repro,
1996-07-10,-3.14, -3.14, -5.27, 3.10, 2.06, 9.28, repro,
1996-07-11,-3.95, -2.48, -9.72, 3.14, 2.06, 9.36, repro,
1996-07-13,-3.73, -2.06, -2.08, 3.49, 2.22, 10.09, repro,
1996-07-14,-3.89, -1.35, -6.75, 3.46, 2.23, 10.05, repro,
1996-07-15,-4.11, -3.29, -3.54, 3.77, 2.39, 11.09, repro,
1996-07-16,-4.45, -1.86, -3.61, 3.81, 2.42, 11.10, repro,
1996-07-17,-4.86, -1.35, -7.98, 5.00, 3.35, 17.31, repro,
1996-07-18,-3.59, -0.05, -4.51, 3.71, 2.41, 10.98, repro,
1996-07-19,-5.44, -1.44, 3.66, 3.85, 2.46, 10.95, repro,
1996-07-20,-2.59, -1.67, 6.02, 3.22, 2.11, 9.46, repro,
1996-07-21,-3.47, -2.77, -5.81, 2.85, 1.91, 8.57, repro,
1996-07-22,-1.70, -1.90, -10.18, 3.45, 2.25, 10.23, repro,
1996-07-24,-5.23, -2.31, -5.89, 3.83, 2.42, 11.14, repro,
1996-07-25,-7.19, -2.33, -6.22, 4.07, 2.69, 11.69, repro,
1996-07-26,-6.29, -1.15, 1.80, 3.78, 2.45, 11.09, repro,
1996-07-27,-4.69, -2.61, -1.95, 3.49, 2.27, 10.10, repro,
1996-07-28,-4.44, -1.44, -4.42, 3.58, 2.35, 10.23, repro,
1996-07-29,0.18, -3.58, -4.95, 5.50, 3.76, 16.79, repro,
1996-07-30,-5.43, -1.22, 0.74, 3.81, 2.56, 11.31, repro,
1996-07-31,-5.82, -2.91, 1.17, 3.68, 2.44, 10.82, repro,
1996-08-02,-6.18, -4.39, 2.29, 3.45, 2.35, 10.25, repro,
1996-08-03,-2.99, -4.63, -0.61, 2.75, 1.87, 8.41, repro,
1996-08-04,-6.15, -5.42, -2.33, 2.94, 2.00, 8.84, repro,
1996-08-05,-3.09, -4.09, -5.94, 2.84, 1.92, 8.57, repro,
1996-08-06,-2.73, -3.71, -1.37, 3.19, 2.16, 9.82, repro,
1996-08-07,-3.50, -2.62, -9.98, 2.88, 1.90, 8.61, repro,
1996-08-08,-3.86, -0.74, -6.07, 2.89, 2.01, 8.78, repro,
1996-08-09,-2.23, -1.46, 0.67, 2.77, 1.89, 8.39, repro,
1996-08-10,-3.91, -2.37, -2.46, 2.86, 1.94, 8.63, repro,
1996-08-11,-2.40, -0.78, 0.80, 2.78, 1.86, 8.36, repro,
1996-08-12,-3.79, -3.37, -4.15, 2.77, 1.88, 8.36, repro,
1996-08-13,-2.09, -0.09, -1.73, 2.86, 1.94, 8.72, repro,
1996-08-14,-1.56, -2.76, -13.88, 2.90, 1.90, 8.65, repro,
1996-08-15,-3.87, -2.04, -2.77, 2.84, 1.94, 8.56, repro,
1996-08-16,-5.63, -2.56, -8.36, 2.82, 1.94, 8.50, repro,
1996-08-17,-3.00, -3.09, -0.66, 2.78, 1.92, 8.42, repro,
1996-08-18,-2.10, -2.78, -1.36, 2.93, 1.94, 8.81, repro,
1996-08-19,-3.28, -4.79, 1.68, 3.05, 1.97, 8.92, repro,
1996-08-20,-1.57, -4.10, 2.96, 2.93, 1.97, 8.71, repro,
1996-08-21,-4.76, -4.63, -1.73, 3.01, 2.07, 9.47, repro,
1996-08-22,-2.86, -1.78, -0.11, 2.78, 1.83, 8.28, repro,
1996-08-23,-2.20, -1.99, -1.13, 2.99, 1.99, 9.07, repro,
1996-08-24,-0.86, -3.58, -6.14, 2.95, 1.88, 8.92, repro,
1996-08-25,-2.17, -1.88, 0.47, 3.38, 2.17, 9.64, repro,
1996-08-26,-1.45, -6.24, -1.63, 2.80, 1.91, 8.52, repro,
1996-08-27,-3.38, -2.26, -7.92, 4.65, 3.15, 15.08, repro,
1996-08-28,-1.22, -1.87, -3.13, 2.79, 1.85, 8.42, repro,
1996-08-29,-4.41, -2.22, -5.28, 3.79, 2.63, 11.36, repro,
1996-08-30,-5.74, -1.01, 1.28, 2.84, 1.91, 8.77, repro,
1996-08-31,-3.68, -1.19, -5.11, 2.90, 1.92, 8.58, repro,
1996-09-01,-0.46, -2.61, 2.03, 2.85, 1.90, 8.71, repro,
1996-09-02,-3.56, -2.72, -11.85, 2.88, 1.89, 8.51, repro,
1996-09-03,-2.77, -2.39, -10.27, 3.14, 2.07, 9.16, repro,
1996-09-04,-4.14, -3.67, -9.74, 2.93, 1.91, 8.56, repro,
1996-09-05,-1.03, -3.00, -10.46, 2.80, 1.85, 8.33, repro,
1996-09-06,-1.64, -3.22, -13.48, 2.95, 1.98, 8.72, repro,
1996-09-07,-2.19, -2.60, -5.92, 3.24, 2.16, 9.86, repro,
1996-09-08,-3.04, -3.20, -4.29, 3.14, 2.10, 9.64, repro,
1996-09-09,-1.48, -1.49, 2.32, 3.12, 2.09, 9.67, repro,
1996-09-10,-5.39, -0.94, -3.24, 3.34, 2.20, 9.66, repro,
1996-09-11,-2.25, 0.15, 3.71, 3.56, 2.41, 10.43, repro,
1996-09-12,-3.52, -1.51, -6.97, 2.99, 2.00, 9.15, repro,
1996-09-13,-2.44, -2.56, 3.08, 2.90, 1.87, 8.45, repro,
1996-09-14,-3.57, -1.55, 4.13, 2.91, 1.89, 8.47, repro,
1996-09-15,-3.22, -2.53, -2.88, 2.98, 1.95, 8.69, repro,
1996-09-16,-2.15, -3.27, -1.39, 2.83, 1.93, 8.58, repro,
1996-09-17,-0.48, 0.31, 5.16, 2.78, 1.88, 8.31, repro,
1996-09-18,-2.81, 1.93, 5.58, 3.35, 2.27, 9.84, repro,
1996-09-19,-1.03, -2.91, -0.04, 3.23, 2.26, 10.30, repro,
1996-09-20,-3.05, -3.60, -2.23, 3.20, 2.11, 9.49, repro,
1996-09-21,-4.07, -3.19, -2.85, 2.90, 1.95, 8.56, repro,
1996-09-22,-2.37, -4.35, 0.62, 3.10, 2.06, 8.85, repro,
1996-09-23,-2.83, -1.01, -1.94, 3.51, 2.43, 10.61, repro,
1996-09-24,0.76, -4.37, -8.41, 3.35, 2.30, 10.12, repro,
1996-09-25,6.02, -1.94, -1.35, 2.82, 1.87, 8.36, repro,
1996-09-26,-0.37, -2.38, 0.52, 3.03, 2.01, 9.24, repro,
1996-09-27,-2.27, -3.65, -0.65, 3.08, 2.12, 9.89, repro,
1996-09-28,-2.05, -3.20, -4.71, 3.31, 2.22, 10.11, repro,
1996-09-29,-1.46, -3.79, -9.16, 2.72, 1.82, 8.14, repro,
1996-09-30,-0.36, -2.74, -2.78, 2.87, 1.96, 8.80, repro,
1996-10-01,-2.61, -2.82, 2.67, 2.86, 1.93, 8.88, repro,
1996-10-02,-0.77, -2.82, -1.19, 2.87, 1.91, 8.65, repro,
1996-10-03,-6.58, -1.17, -4.51, 3.39, 2.20, 9.70, repro,
1996-10-04,-3.74, -3.19, -6.50, 2.76, 1.88, 8.61, repro,
1996-10-05,-2.51, -3.85, -2.31, 2.91, 2.06, 9.34, repro,
1996-10-06,-3.69, -3.88, -0.51, 2.75, 1.92, 8.57, repro,
1996-10-07,0.47, -4.85, 1.55, 2.78, 1.87, 8.61, repro,
1996-10-08,2.95, -3.50, -1.06, 2.79, 1.86, 8.61, repro,
1996-10-09,-0.47, -3.29, -5.15, 3.20, 2.14, 9.39, repro,
1996-10-10,-2.90, -4.70, 8.63, 2.80, 1.90, 8.60, repro,
1996-10-11,-0.10, -3.06, 9.06, 2.72, 1.81, 8.21, repro,
1996-10-12,0.20, -2.31, 10.89, 2.66, 1.80, 8.14, repro,
1996-10-13,6.14, -5.63, 1.33, 3.46, 2.23, 10.05, repro,
1996-10-14,-0.80, -3.21, 9.30, 2.73, 1.85, 8.36, repro,
1996-10-15,-3.38, -3.71, 4.57, 2.87, 1.87, 8.55, repro,
1996-10-16,1.13, -3.03, 2.14, 3.24, 2.14, 10.19, repro,
1996-10-17,0.95, -3.10, -8.83, 2.90, 1.90, 8.89, repro,
1996-10-18,1.75, -1.73, 4.94, 2.89, 1.93, 8.85, repro,
1996-10-19,-2.54, -1.34, -6.64, 2.98, 1.94, 8.98, repro,
1996-10-20,-2.34, -0.38, -5.48, 2.67, 1.78, 8.18, repro,
1996-10-21,-3.09, 1.14, -5.70, 2.67, 1.79, 8.24, repro,
1996-10-22,-0.32, -0.75, 0.37, 3.46, 2.33, 10.37, repro,
1996-10-23,-4.15, 0.21, 7.19, 2.98, 2.08, 9.75, repro,
1996-10-24,-4.82, 0.71, 4.16, 2.62, 1.77, 8.12, repro,
1996-10-25,-5.01, -0.30, -1.85, 3.18, 2.06, 9.50, repro,
1996-10-26,0.66, -0.53, -2.67, 2.79, 1.87, 8.53, repro,
1996-10-27,-1.69, -0.86, -9.22, 2.64, 1.80, 8.30, repro,
1996-10-28,0.43, -1.15, -12.81, 2.75, 1.86, 8.52, repro,
1996-10-29,1.48, -2.91, -5.95, 2.66, 1.81, 8.28, repro,
1996-10-30,-3.01, -1.84, -6.71, 2.74, 1.80, 8.37, repro,
1996-10-31,-0.53, -2.50, -3.16, 2.74, 1.80, 8.29, repro,
1996-11-01,0.24, -3.43, -0.82, 2.77, 1.86, 8.50, repro,
1996-11-02,-3.87, -3.43, -2.96, 2.75, 1.85, 8.34, repro,
1996-11-03,-3.87, -2.47, 0.49, 2.79, 1.86, 8.53, repro,
1996-11-04,-3.49, -3.22, 4.61, 3.25, 2.14, 10.06, repro,
1996-11-05,-2.40, -4.22, 3.62, 2.85, 1.85, 8.69, repro,
1996-11-06,-3.35, -1.75, 6.18, 3.14, 2.08, 10.05, repro,
1996-11-07,-1.90, 0.28, -2.50, 2.90, 1.91, 9.20, repro,
1996-11-08,-0.13, -0.54, -14.57, 3.02, 1.98, 9.85, repro,
1996-11-09,-4.94, -0.87, -13.46, 3.01, 2.00, 9.73, repro,
1996-11-10,-1.99, -2.11, -12.98, 3.06, 1.98, 9.52, repro,
1996-11-11,-4.48, -6.18, -17.61, 2.94, 1.95, 8.83, repro,
1996-11-12,-1.47, -2.94, -11.38, 2.94, 2.00, 8.94, repro,
1996-11-13,-2.21, -2.13, -9.08, 2.76, 1.86, 8.46, repro,
1996-11-14,-0.28, -1.73, -14.50, 2.87, 1.92, 8.96, repro,
1996-11-15,-1.75, -1.49, -12.37, 2.92, 1.93, 9.00, repro,
1996-11-16,-1.52, -1.09, -7.77, 3.20, 2.13, 9.85, repro,
1996-11-17,-2.02, -1.91, -6.09, 3.26, 2.15, 10.02, repro,
1996-11-18,-3.56, -1.42, -2.41, 3.28, 2.09, 9.76, repro,
1996-11-19,-3.12, -2.73, -15.58, 3.84, 2.53, 11.22, repro,
1996-11-20,-3.37, -1.26, -6.32, 2.99, 1.97, 8.89, repro,
1996-11-21,-2.68, -3.05, -12.64, 2.87, 1.92, 8.63, repro,
1996-11-22,-3.07, -3.41, -5.46, 3.05, 2.00, 9.64, repro,
1996-11-23,-1.74, -1.31, -4.69, 3.19, 2.15, 9.85, repro,
1996-11-24,-2.90, -3.49, -7.72, 3.04, 2.02, 9.27, repro,
1996-11-25,-3.89, -3.08, -8.42, 3.21, 2.12, 9.44, repro,
1996-11-26,-2.44, -1.26, -7.84, 3.01, 2.02, 9.15, repro,
1996-11-27,-3.64, 1.04, -4.20, 3.04, 2.03, 9.10, repro,
1996-11-28,-3.60, -0.24, -6.04, 3.00, 2.08, 9.53, repro,
1996-11-29,-3.96, -2.33, -2.96, 3.20, 2.19, 9.91, repro,
1996-11-30,0.34, -3.14, 4.25, 3.30, 2.13, 9.74, repro,
1996-12-01,-3.05, -2.88, -0.75, 3.15, 2.15, 9.55, repro,
1996-12-02,1.82, -2.94, -6.89, 3.17, 2.13, 9.52, repro,
1996-12-03,-0.29, -0.03, -4.85, 3.03, 2.02, 8.99, repro,
1996-12-04,0.12, 2.52, 11.71, 3.24, 2.12, 10.04, repro,
1996-12-05,-4.51, 3.99, 20.43, 3.31, 2.20, 9.85, repro,
1996-12-06,-9.27, 1.64, 0.78, 3.21, 2.13, 9.52, repro,
1996-12-07,-5.22, 2.09, 8.35, 3.22, 2.13, 9.66, repro,
1996-12-08,-6.62, 4.29, 15.17, 3.09, 2.06, 9.28, repro,
1996-12-09,-3.70, 3.19, 20.27, 3.22, 2.13, 9.69, repro,
1996-12-10,-8.78, 2.09, 14.56, 3.21, 2.09, 9.82, repro,
1996-12-11,-7.74, 1.48, 19.48, 2.99, 2.01, 9.31, repro,
1996-12-12,-2.79, -1.97, -4.82, 2.94, 2.00, 8.85, repro,
1996-12-13,-2.35, -4.49, -1.98, 2.90, 1.96, 8.79, repro,
1996-12-14,-1.17, -9.21, -11.64, 2.83, 1.86, 8.55, repro,
1996-12-15,1.26, -8.14, -9.12, 2.91, 1.94, 9.07, repro,
1996-12-16,-1.29, -8.53, -15.61, 2.71, 1.81, 8.29, repro,
1996-12-17,-1.06, -9.50, -11.27, 3.15, 2.04, 9.10, repro,
1996-12-18,-1.26, -9.23, -6.39, 2.72, 1.82, 8.39, repro,
1996-12-19,-0.53, -9.29, -7.72, 2.79, 1.85, 8.60, repro,
1996-12-20,1.50, -9.78, -15.13, 2.85, 1.86, 8.62, repro,
1996-12-21,2.36, -6.96, -13.82, 2.86, 1.92, 8.54, repro,
1996-12-22,2.88, -5.90, -12.46, 2.83, 1.93, 8.56, repro,
1996-12-23,0.91, -7.05, -15.16, 2.75, 1.87, 8.35, repro,
1996-12-24,1.99, -6.73, -20.29, 2.80, 1.85, 8.49, repro,
1996-12-25,-0.23, -5.09, -19.89, 2.79, 1.86, 8.40, repro,
1996-12-26,-0.61, -0.68, -14.36, 2.75, 1.84, 8.29, repro,
1996-12-27,4.81, 1.04, -12.41, 2.88, 1.93, 8.67, repro,
1996-12-28,2.09, -0.64, -7.15, 2.80, 1.86, 8.49, repro,
1996-12-29,1.77, -2.23, -5.63, 2.72, 1.85, 8.32, repro,
1996-12-30,-0.56, -0.73, -5.35, 3.08, 2.03, 9.53, repro,
1996-12-31,-1.04, 0.03, -1.04, 3.19, 2.07, 9.57, repro,
1997-01-01,-0.02, 0.36, 3.84, 3.11, 1.99, 9.29, repro,
1997-01-02,1.18, -0.33, 4.64, 3.08, 2.04, 9.38, repro,
1997-01-03,0.17, -1.28, -5.42, 2.93, 1.94, 9.17, repro,
1997-01-04,3.00, -0.57, -3.96, 2.88, 1.92, 8.99, repro,
1997-01-05,0.72, 1.29, -11.79, 3.15, 2.09, 9.96, repro,
1997-01-06,0.49, 2.84, -3.99, 3.07, 1.98, 9.35, repro,
1997-01-07,-0.34, -1.52, -10.64, 3.01, 1.98, 9.33, repro,
1997-01-08,0.36, -2.63, -15.86, 3.07, 2.03, 9.39, repro,
1997-01-09,-1.37, -3.60, -9.36, 3.05, 2.09, 9.85, repro,
1997-01-10,-4.07, -1.50, -14.74, 3.05, 2.08, 9.64, repro,
1997-01-11,1.62, 4.90, -7.59, 2.90, 1.89, 8.69, repro,
1997-01-12,-1.02, 3.17, -13.37, 3.13, 2.05, 9.56, repro,
1997-01-13,0.46, -3.82, -9.69, 3.00, 1.94, 9.09, repro,
1997-01-14,0.86, -8.12, -17.97, 3.62, 2.44, 11.18, repro,
1997-01-15,-2.70, -5.71, -18.91, 2.88, 2.00, 9.07, repro,
1997-01-16,-3.02, -5.09, -9.69, 3.06, 2.05, 9.39, repro,
1997-01-17,-3.99, -4.75, -1.59, 3.39, 2.25, 10.26, repro,
1997-01-18,-2.43, -4.50, -0.33, 3.27, 2.25, 10.29, repro,
1997-01-19,-3.72, -4.93, -9.82, 2.97, 2.00, 9.07, repro,
1997-01-20,-2.37, -4.57, -4.53, 2.97, 1.98, 9.28, repro,
1997-01-21,-1.34, -4.63, -5.04, 2.99, 2.05, 9.31, repro,
1997-01-22,-3.16, -5.52, -11.83, 3.03, 2.06, 9.75, repro,
1997-01-23,-2.38, -4.49, -15.28, 3.17, 2.07, 9.57, repro,
1997-01-24,-2.62, -4.83, -17.55, 3.23, 2.22, 9.72, repro,
1997-01-25,-3.26, -7.43, -7.82, 3.39, 2.24, 10.63, repro,
1997-01-26,-2.49, -9.05, -16.17, 2.91, 1.98, 8.81, repro,
1997-01-27,-3.80, -7.47, -12.03, 3.24, 2.11, 9.82, repro,
1997-01-28,-3.00, -7.15, -7.66, 2.87, 1.89, 8.71, repro,
1997-01-29,-2.07, -8.39, -9.32, 2.91, 1.93, 8.67, repro,
1997-01-30,-4.64, -9.21, 2.15, 2.74, 1.86, 8.47, repro,
1997-01-31,-4.60, -2.66, 1.18, 3.42, 2.28, 10.97, repro,
1997-02-01,-0.59, -2.83, -3.66, 2.88, 1.92, 8.75, repro,
1997-02-24,-1.11, -4.87, -4.63, 2.99, 2.07, 9.16, repro,
1997-02-25,-1.05, -4.62, -8.50, 3.01, 2.10, 9.36, repro,
1997-02-26,0.15, -4.20, -4.11, 3.23, 2.21, 10.09, repro,
1997-02-27,-2.61, -2.57, -3.28, 3.19, 2.23, 9.99, repro,
1997-02-28,-0.62, -3.04, -8.21, 3.38, 2.29, 10.57, repro,
1997-03-02,-4.70, -3.39, -6.68, 3.02, 2.04, 9.44, repro,
1997-03-03,-6.82, -2.70, -15.99, 2.99, 1.98, 9.20, repro,
1997-03-04,-4.54, -2.30, -23.89, 3.12, 2.23, 10.08, repro,
1997-03-05,-6.89, -2.59, -22.25, 3.01, 2.07, 9.23, repro,
1997-03-06,-6.55, -2.57, -14.27, 3.03, 2.07, 9.32, repro,
1997-03-07,-7.58, -2.99, -7.72, 2.80, 1.88, 8.85, repro,
1997-03-08,-8.97, -2.89, -18.49, 2.87, 1.92, 9.03, repro,
1997-03-09,-9.27, -4.96, -11.55, 3.29, 2.15, 10.02, repro,
1997-03-10,-6.06, -2.76, -17.44, 3.09, 2.09, 9.65, repro,
1997-03-11,-6.76, -2.15, -30.99, 3.07, 2.13, 9.70, repro,
1997-03-12,-4.40, -1.12, -29.88, 3.07, 2.13, 9.71, repro,
1997-03-13,-4.58, 1.32, -29.28, 3.24, 2.22, 10.17, repro,
1997-03-14,-0.89, -1.72, -20.15, 2.87, 1.89, 8.57, repro,
1997-03-15,-0.06, -3.27, -13.36, 2.85, 1.93, 8.84, repro,
1997-03-16,-0.01, -3.23, -10.40, 2.78, 1.84, 8.78, repro,
1997-03-17,-2.05, -2.29, -7.62, 2.79, 1.89, 8.83, repro,
1997-03-18,0.78, -3.59, -12.15, 2.95, 1.92, 9.07, repro,
1997-03-19,-1.12, -3.50, -9.48, 2.71, 1.82, 8.44, repro,
1997-03-20,-1.66, -3.92, -4.50, 2.76, 1.85, 8.63, repro,
1997-03-21,-1.39, -3.97, -9.03, 2.92, 1.97, 9.26, repro,
1997-03-22,-3.29, -4.93, -7.79, 2.70, 1.84, 8.46, repro,
1997-03-23,-3.06, -4.72, -15.49, 3.21, 2.18, 10.02, repro,
1997-03-24,-3.62, -3.06, -9.24, 2.94, 1.99, 9.13, repro,
1997-03-25,-5.26, -3.37, -6.14, 2.88, 1.93, 8.93, repro,
1997-03-26,-5.07, -3.38, 3.52, 3.06, 2.06, 9.49, repro,
1997-03-27,-2.05, -2.45, -12.05, 2.78, 1.87, 8.61, repro,
1997-03-28,-3.94, -3.34, 1.57, 2.82, 1.90, 8.83, repro,
1997-03-29,-5.22, -3.32, 3.81, 2.81, 1.88, 8.66, repro,
1997-03-30,-4.18, -3.02, -2.42, 2.75, 1.86, 8.56, repro,
1997-03-31,-4.15, -3.90, -4.55, 3.23, 2.13, 9.93, repro,
1997-04-01,-3.57, -2.68, -11.61, 2.75, 1.89, 8.75, repro,
1997-04-02,-5.51, -2.04, -1.36, 2.85, 1.96, 9.17, repro,
1997-04-03,0.22, -5.96, -25.95, 2.67, 1.82, 8.41, repro,
1997-04-04,-3.58, -2.07, -14.82, 2.78, 1.84, 8.58, repro,
1997-04-05,-3.30, -2.26, -13.69, 2.99, 2.03, 9.29, repro,
1997-04-06,-5.00, -1.96, -8.79, 2.86, 1.92, 8.94, repro,
1997-04-07,-4.32, -2.77, -12.84, 2.80, 1.93, 9.06, repro,
1997-04-08,-4.93, -3.07, -14.81, 2.85, 1.89, 8.88, repro,
1997-04-09,-5.07, -2.93, -18.36, 2.83, 1.88, 8.78, repro,
1997-04-10,-3.47, -2.56, -18.00, 2.74, 1.85, 8.57, repro,
1997-04-11,-2.11, -2.41, -17.63, 3.26, 2.17, 10.28, repro,
1997-04-12,-3.29, -2.24, -12.08, 2.72, 1.82, 8.49, repro,
1997-04-13,-3.99, -3.94, -14.60, 2.68, 1.80, 8.37, repro,
1997-04-14,-4.12, -1.94, -4.67, 2.83, 1.87, 8.69, repro,
1997-04-15,-5.30, -1.74, 1.84, 2.70, 1.82, 8.42, repro,
1997-04-16,-4.35, -2.43, -3.61, 2.81, 1.87, 8.82, repro,
1997-04-17,-4.50, 0.83, -7.99, 3.85, 2.57, 11.62, repro,
1997-04-18,-3.91, 2.92, -10.70, 3.33, 2.28, 10.56, repro,
1997-04-19,-3.71, 0.12, -12.29, 3.46, 2.32, 10.93, repro,
1997-04-20,-3.55, -0.08, -4.64, 2.74, 1.83, 8.50, repro,
1997-04-21,-4.29, -0.87, -12.04, 2.94, 1.95, 9.41, repro,
1997-04-22,-3.39, -0.72, -8.52, 2.91, 1.96, 9.01, repro,
1997-04-23,-6.11, -0.30, -8.23, 2.82, 1.90, 8.79, repro,
1997-04-24,-5.30, -1.69, -16.22, 2.78, 1.84, 8.60, repro,
1997-04-25,-3.43, -0.27, -6.77, 2.76, 1.85, 8.64, repro,
1997-04-26,-3.96, -2.44, -5.99, 2.73, 1.84, 8.61, repro,
1997-04-27,-3.20, -0.84, -2.67, 2.74, 1.87, 8.61, repro,
1997-04-28,-5.28, -0.98, -0.20, 2.85, 1.94, 8.92, repro,
1997-04-29,-3.99, 0.47, -1.70, 2.88, 1.97, 9.31, repro,
1997-04-30,-4.66, -0.26, 1.15, 2.74, 1.89, 8.64, repro,
1997-05-01,-5.04, -0.77, -6.69, 2.77, 1.89, 8.62, repro,
1997-05-02,-5.00, -2.49, -10.32, 2.74, 1.82, 8.47, repro,
1997-05-03,-3.18, -1.47, -8.25, 2.68, 1.82, 8.32, repro,
1997-05-04,-5.57, -3.08, -8.78, 2.82, 1.87, 8.60, repro,
1997-05-05,-2.73, -2.76, -11.05, 2.75, 1.86, 8.75, repro,
1997-05-06,-5.19, -2.73, -7.00, 2.78, 1.84, 8.80, repro,
1997-05-07,-5.65, -3.32, -14.29, 2.80, 1.88, 8.72, repro,
1997-05-08,-5.78, -2.16, -9.39, 2.71, 1.79, 8.44, repro,
1997-05-09,-3.68, -1.98, -1.61, 2.83, 1.90, 8.79, repro,
1997-05-10,-3.61, -0.85, -11.18, 2.83, 1.87, 8.78, repro,
1997-05-11,-0.78, -2.24, -4.47, 2.76, 1.86, 8.59, repro,
1997-05-12,-3.80, -1.97, -5.51, 2.78, 1.82, 8.65, repro,
1997-05-13,-6.51, -1.29, -9.59, 2.87, 1.88, 8.78, repro,
1997-05-14,-0.49, -3.24, -3.40, 2.84, 1.89, 8.95, repro,
1997-05-15,-3.10, 1.46, 6.29, 3.65, 2.49, 11.96, repro,
1997-05-16,-2.80, -4.41, -10.55, 2.68, 1.78, 8.37, repro,
1997-05-17,-2.26, -1.98, -11.89, 2.75, 1.83, 8.72, repro,
1997-05-18,-3.67, -2.53, -17.49, 2.71, 1.79, 8.43, repro,
1997-05-19,-3.59, -2.26, -14.92, 2.87, 1.98, 9.89, repro,
1997-05-20,-3.77, -0.84, -12.63, 2.89, 1.94, 9.09, repro,
1997-05-21,-2.80, -1.31, -5.62, 2.74, 1.84, 8.66, repro,
1997-05-22,-1.61, -1.37, -10.06, 2.73, 1.82, 8.58, repro,
1997-05-23,-2.43, -2.07, -6.40, 2.90, 1.90, 8.95, repro,
1997-05-24,-2.72, -2.20, -5.33, 2.79, 1.90, 8.89, repro,
1997-05-25,-1.08, -1.87, -11.67, 2.70, 1.84, 8.58, repro,
1997-05-26,-1.69, -1.46, -9.88, 3.17, 2.13, 10.57, repro,
1997-05-27,-1.34, -2.75, -2.53, 3.13, 2.11, 9.72, repro,
1997-05-28,-3.29, -1.82, -1.11, 2.83, 1.91, 8.98, repro,
1997-05-29,-2.51, -1.69, -2.13, 2.75, 1.87, 8.63, repro,
1997-05-30,-3.41, -1.34, 2.59, 2.67, 1.79, 8.34, repro,
1997-05-31,-2.16, -2.47, 0.42, 2.87, 1.88, 8.67, repro,
1997-06-01,-2.33, -2.09, 0.47, 2.72, 1.83, 8.50, repro,
1997-06-02,-3.91, -2.18, 0.53, 2.84, 1.91, 8.96, repro,
1997-06-03,-0.87, -2.16, -3.31, 2.77, 1.87, 8.70, repro,
1997-06-04,-4.30, -1.78, -2.05, 2.66, 1.77, 8.42, repro,
1997-06-05,-3.09, -1.59, -0.95, 2.66, 1.78, 8.36, repro,
1997-06-06,-2.82, -0.98, 0.11, 3.15, 2.16, 10.36, repro,
1997-06-07,-1.38, -1.00, 3.72, 3.26, 2.30, 10.78, repro,
1997-06-08,-3.10, -0.25, -2.31, 2.77, 1.88, 8.82, repro,
1997-06-09,-5.51, -1.45, -5.07, 3.59, 2.26, 10.41, repro,
1997-06-10,-2.81, -2.84, -3.44, 3.05, 2.12, 9.34, repro,
1997-06-11,-3.16, -1.51, -5.44, 2.74, 1.84, 8.61, repro,
1997-06-12,-0.87, -1.40, -3.50, 2.73, 1.81, 8.51, repro,
1997-06-13,-4.07, -2.59, -2.30, 2.73, 1.84, 8.57, repro,
1997-06-14,-2.90, -3.18, 7.47, 2.78, 1.89, 8.70, repro,
1997-06-15,-3.45, -1.72, 5.18, 2.73, 1.85, 8.48, repro,
1997-06-16,-3.10, -1.55, 1.75, 2.71, 1.82, 8.51, repro,
1997-06-17,-1.07, -1.41, 0.74, 2.69, 1.78, 8.43, repro,
1997-06-18,-3.81, -1.05, 1.45, 2.65, 1.75, 8.25, repro,
1997-06-19,-2.91, -1.45, -4.83, 2.67, 1.81, 8.48, repro,
1997-06-20,-3.07, -0.11, 0.93, 2.90, 1.98, 9.02, repro,
1997-06-21,-2.47, -3.73, -2.46, 2.74, 1.88, 8.66, repro,
1997-06-22,-0.52, -1.54, 1.70, 2.88, 1.95, 8.96, repro,
1997-06-23,-7.15, -1.79, 17.89, 6.23, 4.00, 21.74, repro,
1997-06-24,-5.05, -1.91, -0.94, 5.39, 3.54, 16.15, repro,
1997-06-25,-4.10, -3.30, -0.64, 2.78, 1.90, 8.77, repro,
1997-06-26,-3.26, -5.30, -2.61, 2.61, 1.78, 8.20, repro,
1997-06-27,-0.99, -5.54, -4.69, 3.00, 2.04, 9.25, repro,
1997-06-28,-4.87, -4.84, -10.64, 3.08, 2.11, 9.89, repro,
1997-06-29,-6.65, -4.72, -3.08, 2.77, 1.86, 8.73, repro,
1997-06-30,-6.08, -4.72, -4.59, 2.66, 1.79, 8.38, repro,
1997-07-01,-5.22, -3.01, -6.31, 2.80, 1.91, 8.68, repro,
1997-07-02,-5.28, -1.94, -2.58, 2.88, 1.96, 8.88, repro,
1997-07-03,-4.88, -3.06, -2.27, 2.74, 1.85, 8.53, repro,
1997-07-04,-5.96, -2.96, -6.07, 3.09, 2.04, 9.33, repro,
1997-07-05,-3.26, -3.62, -4.53, 2.98, 1.95, 8.98, repro,
1997-07-06,-3.85, -4.19, -1.92, 3.00, 2.06, 9.67, repro,
1997-07-07,-3.73, -1.58, 0.56, 2.85, 1.91, 8.82, repro,
1997-07-08,-4.33, -2.57, 3.65, 2.97, 1.98, 9.11, repro,
1997-07-09,-6.76, -5.90, 4.18, 3.17, 2.16, 9.48, repro,
1997-07-10,-3.78, -4.73, -1.86, 3.01, 2.02, 9.26, repro,
1997-07-11,-2.74, -6.47, -7.01, 2.87, 1.95, 8.94, repro,
1997-07-12,-6.06, -2.70, -4.00, 3.00, 2.06, 9.31, repro,
1997-07-13,-5.19, -3.06, -2.00, 2.67, 1.81, 8.35, repro,
1997-07-14,-6.09, -4.26, -0.58, 2.89, 1.93, 9.02, repro,
1997-07-15,-3.26, -2.07, -6.34, 3.03, 2.02, 9.25, repro,
1997-07-16,-4.02, -2.83, -8.88, 2.74, 1.83, 8.54, repro,
1997-07-17,-5.24, -4.62, -3.89, 2.75, 1.85, 8.51, repro,
1997-07-18,-3.08, -3.49, -10.57, 2.69, 1.82, 8.33, repro,
1997-07-19,-8.06, -4.22, -6.09, 2.76, 1.86, 8.65, repro,
1997-07-20,-5.74, -3.33, 1.21, 2.83, 1.85, 8.57, repro,
1997-07-21,-5.56, -4.16, 1.55, 3.31, 2.16, 10.27, repro,
1997-07-22,-5.31, -5.07, -7.83, 2.81, 1.86, 8.59, repro,
1997-07-23,-4.35, -4.65, -7.13, 3.15, 2.02, 9.23, repro,
1997-07-24,-4.25, -4.84, -11.86, 2.93, 1.93, 8.86, repro,
1997-07-25,-4.51, -4.51, -7.26, 2.70, 1.83, 8.60, repro,
1997-07-26,-3.76, -4.48, -7.06, 2.89, 1.91, 8.72, repro,
1997-07-27,-6.16, -3.87, -3.38, 2.80, 1.89, 8.86, repro,
1997-07-28,-5.04, -5.62, -8.08, 2.85, 1.88, 8.57, repro,
1997-07-29,-3.02, -5.70, -0.35, 2.72, 1.79, 8.36, repro,
1997-07-30,-7.64, -5.23, 3.18, 2.73, 1.86, 8.45, repro,
1997-07-31,-5.91, -2.82, -1.83, 2.89, 2.00, 9.07, repro,
1997-08-01,-4.71, -4.56, -3.26, 2.83, 1.89, 8.51, repro,
1997-08-02,-4.44, -3.61, -4.20, 2.78, 1.82, 8.46, repro,
1997-08-03,-4.49, -4.56, -5.93, 3.05, 1.96, 9.12, repro,
1997-08-04,-6.01, -4.06, -2.19, 2.74, 1.81, 8.39, repro,
1997-08-05,-5.44, -2.59, -5.02, 2.72, 1.84, 8.38, repro,
1997-08-06,-5.50, -2.39, -10.95, 3.11, 2.13, 9.79, repro,
1997-08-07,-3.10, -5.77, -9.79, 2.65, 1.78, 8.21, repro,
1997-08-08,-1.83, -4.47, -3.31, 2.96, 1.93, 8.80, repro,
1997-08-09,-4.19, -4.36, 4.28, 2.86, 1.92, 8.78, repro,
1997-08-10,-6.21, -3.74, -0.99, 2.66, 1.81, 8.23, repro,
1997-08-11,-4.41, -3.86, -2.97, 2.65, 1.80, 8.24, repro,
1997-08-12,-2.53, -4.33, 4.00, 2.82, 1.85, 8.66, repro,
1997-08-13,-3.10, -7.39, 7.09, 2.74, 1.84, 8.38, repro,
1997-08-14,-3.28, -4.85, -0.96, 2.97, 1.94, 9.09, repro,
1997-08-15,-6.53, -2.98, -1.15, 2.78, 1.89, 8.54, repro,
1997-08-16,-4.58, -3.78, -0.41, 2.77, 1.85, 8.42, repro,
1997-08-17,-2.56, -5.69, -8.02, 2.75, 1.85, 8.49, repro,
1997-08-18,-3.66, -3.34, -1.49, 2.83, 1.88, 8.59, repro,
1997-08-19,-5.07, -2.71, 2.65, 2.79, 1.87, 8.43, repro,
1997-08-20,-5.17, -3.57, -1.53, 2.79, 1.89, 8.63, repro,
1997-08-21,-6.25, -3.58, 0.10, 2.81, 1.88, 8.59, repro,
1997-08-22,-6.56, -3.00, -1.99, 3.13, 2.12, 9.62, repro,